ROMMA est une association bénévole à but non lucratif. Votre soutien est indispensable : ADHERER à ROMMA ou FAIRE un DON

Lans-en-Vercors - (38, Isère)

Vercors (990 m)   Longitude: 5° 33' 59'' E   Latitude: 45° 6' 3'' N Station partenaire n°80
 

Détail journalier du     <<     >>

Température Humidité Vent Dir Rafale Dir. rafale Ensol.
Heure (°C) (%) (km/h) (km/h) (min)
01:00 14.6941SSO10SSO0
02:00 14.6932SSO10SSO0
03:00 14.3952SSO8SSO0
04:00 14.49406SSO0
05:00 14.394000
06:00 13.9962SO8SO0
07:00 13.7962SO11ONO0
08:00 13.4961NO6NO0
09:00 13.2962NO8NO0
10:00 13.4961NO8NO0
11:00 13.1963N16N0
12:00 13.1953NNE18OSO0
13:00 12.9962OSO11O0
14:00 12.8962NNE16NNE0
15:00 11.5949NNE26NNE0
16:00 11.6951N10N0
17:00 11.1947N21NNO0
18:00 11.2964NNE21NNE0
19:00 11.2957N18NNE0
20:00 10.7956NNE21NE0
21:00 10.4957NNE18N0
22:00 9.1952N16NNO0
23:00 8.7961N13NNE0
minuit 8.79705NNE0

Graphique du 20-08-2019

 

Serveur OMMA